Location: Pianadetto
(44.4000°N, 10.1000°E)
Time: 22:12:31
(UTC+00:00)

USA 229 DEB - Pass Details

Date: 26 May 2022
Orbit: 934 x 1278 km, 63.4° (Epoch: 24 May)

Event Time Altitude Azimuth Distance (km) Brightness Sun altitude
Rises 01:02:23 0° 317° (NW) 4,015 7.0 -20.2°
Reaches altitude 10° 01:05:12 10° 310° (NW) 3,098 6.3 -20.0°
Maximum altitude 01:12:02 40° 245° (WSW) 1,745 4.4 -19.4°
Enters shadow 01:15:06 29° 202° (SSW) 2,119 4.7 -19.1°
